"2012-01-09 00:00:00",1546859,3.309,129.9,5.72,1.26,2.581,100.034,-0.613,0.358,43.01,0,109.6,13.53,0.14,91.9
"2012-01-09 00:00:30",1546860,4.098,136.4,4.984,0.958,5.553,100.0342,-0.612,0.575,43.08,0,109.6,13.53,0.14,98.4
"2012-01-09 00:01:00",1546861,4.168,137,5.278,0.869,5.7,100.0331,-0.615,0.61,43.01,0,109.5,13.53,0.13,99.0
"2012-01-09 00:01:30",1546862,4.044,138.8,4.391,0.956,5.614,100.032,-0.618,0.61,43,0,109.6,13.53,0.13,100.8
"2012-01-09 00:02:00",1546863,3.492,134.5,5.854,1.169,3.393,100.0331,-0.615,0.376,42.73,0,109.6,13.53,0.13,96.5
"2012-01-09 00:02:30",1546864,1.895,128.4,0.947,0.039,0.587,100.0331,-0.615,0.294,42.66,0,109.6,13.57,0.13,90.4
"2012-01-09 00:03:00",1546865,2.155,129.8,4.185,0.8,1.799,100.0342,-0.612,0.45,42.76,0,109.6,13.53,0.14,91.8
"2012-01-09 00:03:30",1546866,3.646,140.9,6.14,1.178,4.968,100.0351,-0.61,0.513,42.91,0,109.6,13.53,0.14,102.9
"2012-01-09 00:04:00",1546867,3.923,143.3,5.611,0.945,5.556,100.0357,-0.609,0.604,43.22,0,109.6,13.53,0.14,105.3
"2012-01-09 00:04:30",1546868,3.838,144.6,5.1,0.939,5.592,100.0405,-0.596,0.586,43.18,0,109.6,13.54,0.15,106.6
"2012-01-09 00:05:00",1546869,3.126,143.2,6.137,1.25,3.594,100.041,-0.595,0.508,43.01,0,109.6,13.54,0.15,105.2
"2012-01-09 00:05:30",1546870,1.751,138.8,1.25,0.053,0.271,100.0453,-0.584,0.309,42.91,0,109.6,13.57,0.17,100.8
"2012-01-09 00:06:00",1546871,1.938,141.6,3.48,0.771,0.893,100.0476,-0.578,0.282,42.92,0,109.6,13.54,0.17,103.6
"2012-01-09 00:06:30",1546872,3.942,152.5,4.489,0.781,5.637,100.0484,-0.576,0.531,43.21,0,109.6,13.54,0.17,114.5
"2012-01-09 00:07:00",1546873,3.641,150.8,5.767,1.085,5.224,100.0495,-0.573,0.558,43.29,0,109.5,13.54,0.18,112.8
"2012-01-09 00:07:30",1546874,3.75,153.7,4.734,0.949,5.525,100.0501,-0.572,0.606,43.31,0,109.5,13.54,0.18,115.7
"2012-01-09 00:08:00",1546875,3.628,153.8,4.875,1.07,4.321,100.0555,-0.558,0.442,43.37,0,109.5,13.54,0.19,115.8
"2012-01-09 00:08:30",1546876,1.72,143.8,0.784,0.028,0.547,100.0589,-0.549,0.319,43.32,0,109.5,13.57,0.20,105.8
"2012-01-09 00:09:00",1546877,2.092,145.5,4.688,0.872,1.71,100.0586,-0.55,0.456,43.49,0,109.5,13.54,0.20,107.5
"2012-01-09 00:09:30",1546878,3.425,153.2,7.495,1.205,4.586,100.0592,-0.549,0.579,43.62,0,109.5,13.54,0.20,115.2
"2012-01-09 00:10:00",1546879,3.301,155.2,5.771,1.256,4.783,100.0611,-0.544,0.604,43.52,0,109.5,13.54,0.21,117.2
"2012-01-09 00:10:30",1546880,3.888,157.1,5.186,0.866,5.423,100.0631,-0.539,0.607,43.49,0,109.5,13.54,0.21,119.1
"2012-01-09 00:11:00",1546881,3.665,155,5.87,1.017,4.614,100.0645,-0.535,0.523,43.42,0,109.5,13.54,0.21,117.0
"2012-01-09 00:11:30",1546882,1.672,146,0.818,0.027,0.417,100.0634,-0.538,0.354,43.23,0,109.5,13.57,0.21,108.0
"2012-01-09 00:12:00",1546883,1.629,145.7,0.895,0.038,0.445,100.0608,-0.544,0.352,43.25,0,109.5,13.57,0.21,107.7
"2012-01-09 00:12:30",1546884,3.833,156.9,4.328,0.878,5.063,100.0606,-0.545,0.553,43.46,0,109.5,13.54,0.21,118.9
"2012-01-09 00:13:00",1546885,3.91,154.2,4.958,0.874,5.689,100.0558,-0.557,0.639,43.64,0,109.5,13.55,0.19,116.2
"2012-01-09 00:13:30",1546886,3.546,154.2,5.515,1.135,4.847,100.0526,-0.565,0.636,43.52,0,109.5,13.55,0.18,116.2
"2012-01-09 00:14:00",1546887,3.716,155.1,5.046,1.009,5.182,100.0521,-0.567,0.647,43.3,0,109.5,13.55,0.18,117.1
"2012-01-09 00:14:30",1546888,1.848,146.3,3.022,0.628,0.941,100.0504,-0.571,0.371,42.82,0,109.5,13.55,0.18,108.3
"2012-01-09 00:15:00",1546889,1.675,147,0.51,0.005,0.371,100.0538,-0.562,0.333,42.36,0,109.5,13.59,0.19,109.0
"2012-01-09 00:15:30",1546890,2.923,153.1,6.708,1.27,3.408,100.0518,-0.568,0.498,42.39,0,109.5,13.56,0.18,115.1
"2012-01-09 00:16:00",1546891,3.656,158,5.668,1.036,5.218,100.0518,-0.568,0.624,42.5,0,109.5,13.56,0.18,120.0
"2012-01-09 00:16:30",1546892,3.839,160.4,4.504,0.875,5.501,100.0492,-0.574,0.527,42.38,0,109.5,13.56,0.18,122.4
"2012-01-09 00:17:00",1546893,3.661,161.4,5.342,1.019,5.024,100.0512,-0.569,0.621,42.54,0,109.5,13.56,0.18,123.4
"2012-01-09 00:17:30",1546894,2.177,156,5.588,1.109,1.965,100.0509,-0.57,0.429,42.85,0,109.5,13.56,0.18,118.0
"2012-01-09 00:18:00",1546895,1.369,159.3,4.324,0.103,0.479,100.0509,-0.57,0.341,43.26,0,109.5,13.59,0.18,121.3
"2012-01-09 00:18:30",1546896,1.696,171.9,7.536,0.917,1.885,100.058,-0.552,0.408,42.99,0,109.5,13.56,0.20,133.9
"2012-01-09 00:19:00",1546897,3.546,184.4,4.816,0.886,5.616,100.0665,-0.53,0.629,42.99,0,109.5,13.56,0.22,146.4
"2012-01-09 00:19:30",1546898,3.437,185.8,5.892,1.031,5.148,100.0784,-0.5,0.598,42.69,0,109.5,13.56,0.25,147.8
"2012-01-09 00:20:00",1546899,2.916,189.7,5.392,1.217,5.299,100.09,-0.47,0.632,42.49,0,109.5,13.56,0.28,151.7
"2012-01-09 00:20:30",1546900,3.335,194.1,4.541,0.875,4.752,100.0968,-0.453,0.583,42.29,0,109.5,13.56,0.30,156.1
"2012-01-09 00:21:00",1546901,2.195,191.9,6.808,1.237,2.288,100.109,-0.422,0.417,41.89,0,109.5,13.56,0.33,153.9
"2012-01-09 00:21:30",1546902,1.036,188.1,1.42,0.039,0.476,100.1215,-0.39,0.446,41.75,0,109.5,13.6,0.36,150.1
"2012-01-09 00:22:00",1546903,1.3,194,3.788,0.782,0.832,100.1311,-0.365,0.467,41.54,0,109.6,13.57,0.39,156.0
"2012-01-09 00:22:30",1546904,2.988,206,5.682,1.099,5.139,100.1342,-0.357,0.777,41.48,0,109.5,13.57,0.39,168.0
"2012-01-09 00:23:00",1546905,3.27,205,5.016,0.874,5.801,100.1458,-0.328,0.757,41.41,0,109.5,13.57,0.42,167.0
"2012-01-09 00:23:30",1546906,1.591,192.5,7.894,1.001,3.293,100.1504,-0.316,0.706,41.54,0,109.5,13.57,0.43,154.5
"2012-01-09 00:24:00",1546907,3.051,200,4.938,1.021,5.252,100.1498,-0.318,0.765,41.69,0,109.5,13.57,0.43,162.0
"2012-01-09 00:24:30",1546908,1.159,191.9,3.669,0.463,1.28,100.1506,-0.316,0.761,41.62,0,109.5,13.6,0.44,153.9
"2012-01-09 00:25:00",1546909,1.068,193.9,0.897,0.036,0.566,100.1518,-0.313,0.536,41.24,0,109.5,13.6,0.44,155.9
"2012-01-09 00:25:30",1546910,2.533,201.8,6.932,1.279,2.463,100.1521,-0.312,0.559,41.08,0,109.5,13.56,0.44,163.8
"2012-01-09 00:26:00",1546911,3.204,208.6,5.194,0.985,5.072,100.1518,-0.313,0.835,41.12,0,109.5,13.56,0.44,170.6
"2012-01-09 00:26:30",1546912,3.282,208.2,5.424,0.975,5.496,100.1532,-0.309,0.867,41.05,0,109.5,13.56,0.44,170.2
"2012-01-09 00:27:00",1546913,2.216,202.7,6.601,1.209,3.508,100.158,-0.297,0.779,40.88,0,109.5,13.56,0.45,164.7
"2012-01-09 00:27:30",1546914,1.331,197.1,0.852,0.002,0.698,100.1622,-0.286,0.757,40.83,0,109.5,13.6,0.46,159.1
"2012-01-09 00:28:00",1546915,1.858,201.4,5.743,1.001,2.53,100.1668,-0.274,0.886,40.9,0,109.5,13.57,0.48,163.4
"2012-01-09 00:28:30",1546916,1.554,198.3,3.301,0.783,0.845,100.1673,-0.273,0.591,40.55,0,109.5,13.56,0.48,160.3
"2012-01-09 00:29:00",1546917,2.152,200.2,5.734,1.231,2.413,100.1693,-0.268,0.681,40.61,0,109.5,13.56,0.48,162.2
"2012-01-09 00:29:30",1546918,3.711,209.3,3.281,0.511,6.03,100.1693,-0.268,0.937,40.83,0,109.5,13.57,0.48,171.3
"2012-01-09 00:30:00",1546919,2.961,207.6,5.786,1.136,4.739,100.1688,-0.269,0.882,40.77,0,109.5,13.57,0.48,169.6
"2012-01-09 00:30:30",1546920,1.352,199,0.599,0.036,1.002,100.1668,-0.274,0.627,40.56,0,109.5,13.61,0.48,161.0
"2012-01-09 00:31:00",1546921,2.05,202.1,5.58,1.118,1.462,100.1693,-0.268,0.63,40.56,0,109.5,13.57,0.48,164.1
"2012-01-09 00:31:30",1546922,2.094,204.4,6.096,1.163,2.594,100.1725,-0.26,0.856,40.82,0,109.5,13.57,0.49,166.4
"2012-01-09 00:32:00",1546923,2.813,208.1,6.637,1.294,3.43,100.1719,-0.261,0.695,40.67,0,109.5,13.57,0.49,170.1
"2012-01-09 00:32:30",1546924,2.794,208.2,6.271,1.253,3.672,100.173,-0.258,0.796,40.78,0,109.5,13.58,0.49,170.2
"2012-01-09 00:33:00",1546925,3.499,212.9,4.905,0.964,5.795,100.1716,-0.262,0.929,40.98,0,109.5,13.58,0.49,174.9
"2012-01-09 00:33:30",1546926,2.969,210.4,6.439,1.214,3.919,100.1747,-0.254,0.793,40.82,0,109.5,13.58,0.50,172.4
"2012-01-09 00:34:00",1546927,1.397,205.1,1.51,0.018,1.027,100.175,-0.253,0.704,40.75,0,109.5,13.61,0.50,167.1
"2012-01-09 00:34:30",1546928,1.479,206.1,0.772,0.445,0.776,100.1764,-0.25,0.708,40.75,0,109.5,13.58,0.50,168.1
"2012-01-09 00:35:00",1546929,3.003,214.3,6.314,1.176,3.735,100.1745,-0.255,0.719,40.75,0,109.5,13.58,0.50,176.3
"2012-01-09 00:35:30",1546930,2.751,212.6,6.619,1.24,3.011,100.175,-0.253,0.699,40.81,0,109.5,13.58,0.50,174.6
"2012-01-09 00:36:00",1546931,3.905,217.7,2.971,0.252,6.162,100.1713,-0.263,0.94,41.06,0,109.5,13.58,0.49,179.7
"2012-01-09 00:36:30",1546932,3.12,210.5,6.44,1.132,4.286,100.1739,-0.256,0.82,40.94,0,109.5,13.59,0.49,172.5
"2012-01-09 00:37:00",1546933,2.689,207.9,6.28,1.235,3.624,100.1739,-0.256,0.75,40.83,0,109.5,13.58,0.49,169.9
"2012-01-09 00:37:30",1546934,1.517,201.6,0.782,0.025,0.708,100.175,-0.253,0.706,40.76,0,109.5,13.62,0.50,163.6
"2012-01-09 00:38:00",1546935,2.402,206.8,5.49,1.21,1.86,100.1756,-0.252,0.654,40.62,0,109.5,13.59,0.50,168.8
"2012-01-09 00:38:30",1546936,3.153,210.2,5.429,1.157,3.779,100.1779,-0.246,0.709,40.72,0,109.5,13.59,0.51,172.2
"2012-01-09 00:39:00",1546937,3.847,226.3,5.275,0.953,5.212,100.1869,-0.223,0.929,40.77,0,109.5,13.59,0.53,188.3
"2012-01-09 00:39:30",1546938,3.564,227.5,6.011,1.036,5.48,100.1963,-0.199,0.93,40.6,0,109.5,13.59,0.55,189.5
"2012-01-09 00:40:00",1546939,3.134,233,8.78,1.318,3.873,100.2034,-0.181,0.775,40.31,0,109.5,13.59,0.57,195.0
"2012-01-09 00:40:30",1546940,1.816,231.1,7.264,0.804,2.328,100.2218,-0.134,0.889,40.35,0,109.5,13.59,0.62,193.1
"2012-01-09 00:41:00",1546941,2.057,226.5,8.83,1.008,1.618,100.2334,-0.105,0.744,40.2,0,109.5,13.58,0.65,188.5
"2012-01-09 00:41:30",1546942,2.339,234.5,8.95,1.311,3.509,100.2325,-0.107,0.869,40.28,0,109.5,13.58,0.64,196.5
"2012-01-09 00:42:00",1546943,3.365,225.6,7.204,0.998,4.896,100.2266,-0.122,0.972,40.49,0,109.5,13.58,0.63,187.6
"2012-01-09 00:42:30",1546944,3.283,233,5.919,0.95,4.871,100.2079,-0.17,1.042,40.54,0,109.5,13.58,0.58,195.0
"2012-01-09 00:43:00",1546945,2.646,231.5,5.127,1.093,3.674,100.2037,-0.18,0.927,40.48,0,109.5,13.58,0.57,193.5
"2012-01-09 00:43:30",1546946,2.11,232.4,6.197,1.135,1.819,100.2037,-0.18,0.729,40.11,0,109.5,13.58,0.57,194.4
"2012-01-09 00:44:00",1546947,2.882,240.3,8.47,1.2,3.79,100.2039,-0.18,0.867,40.08,0,109.5,13.58,0.57,202.3
"2012-01-09 00:44:30",1546948,1.86,235.4,4.882,0.976,1.911,100.2039,-0.18,0.774,39.94,0,109.5,13.59,0.57,197.4
"2012-01-09 00:45:00",1546949,2.114,235.9,7.058,1.124,2.959,100.2116,-0.16,0.874,40.01,0,109.5,13.58,0.59,197.9
"2012-01-09 00:45:30",1546950,3.384,246.4,7.005,1.136,5.115,100.2249,-0.126,1.034,40.17,0,109.5,13.58,0.63,208.4
"2012-01-09 00:46:00",1546951,2.906,239.7,6.113,1.248,3.635,100.2376,-0.094,0.953,40.06,0,109.5,13.59,0.66,201.7
"2012-01-09 00:46:30",1546952,2.387,236.5,5.21,1.256,3.013,100.2379,-0.093,0.962,39.98,0,109.5,13.59,0.66,198.5
"2012-01-09 00:47:00",1546953,1.415,237.1,3.626,0.082,1.062,100.2379,-0.093,0.776,39.74,0,109.5,13.63,0.66,199.1
"2012-01-09 00:47:30",1546954,2.19,240.8,4.938,1.149,2.723,100.2379,-0.093,0.976,39.84,0,109.5,13.59,0.66,202.8
"2012-01-09 00:48:00",1546955,3.066,243.8,7.556,1.261,3.797,100.2379,-0.093,0.949,39.8,0,109.5,13.59,0.66,205.8
"2012-01-09 00:48:30",1546956,3.374,256.7,6.366,1.17,4.96,100.2379,-0.093,1.119,39.89,0,109.5,13.59,0.66,218.7
"2012-01-09 00:49:00",1546957,3.626,256.5,6.046,1.037,4.966,100.2379,-0.093,1.044,39.81,0,109.5,13.59,0.66,218.5
"2012-01-09 00:49:30",1546958,2.361,246.6,7.712,1.259,2.827,100.2379,-0.093,0.911,39.67,0,109.5,13.59,0.66,208.6
"2012-01-09 00:50:00",1546959,3.277,249.6,6.787,1.144,3.75,100.2379,-0.093,0.877,39.64,0,109.5,13.59,0.66,211.6
"2012-01-09 00:50:30",1546960,3.111,253.1,8.4,1.17,4.044,100.2379,-0.093,1.083,39.86,0,109.5,13.59,0.66,215.1
"2012-01-09 00:51:00",1546961,1.455,251.1,2.991,0.089,0.997,100.2379,-0.093,0.863,39.61,0,109.5,13.63,0.66,213.1
"2012-01-09 00:51:30",1546962,2.7,249.7,6.121,1.306,2.8,100.2379,-0.093,0.871,39.59,0,109.5,13.6,0.66,211.7
"2012-01-09 00:52:00",1546963,2.544,250.9,12.38,1.385,3.814,100.2379,-0.093,1.114,39.8,0,109.5,13.6,0.66,212.9
"2012-01-09 00:52:30",1546964,3.756,266.3,6.038,0.956,5.632,100.2379,-0.093,1.092,39.78,0,109.5,13.6,0.66,228.3
"2012-01-09 00:53:00",1546965,3.071,252.7,8.74,1.266,3.251,100.2382,-0.092,0.936,39.58,0,109.5,13.6,0.66,214.7
"2012-01-09 00:53:30",1546966,2.503,249.9,7.243,1.149,1.803,100.2399,-0.088,0.83,39.48,0,109.5,13.6,0.66,211.9
"2012-01-09 00:54:00",1546967,1.757,239.7,2.578,0.065,1.115,100.2422,-0.082,0.887,39.56,0,109.5,13.63,0.67,201.7
"2012-01-09 00:54:30",1546968,2.14,250.9,4.069,0.888,1.999,100.2419,-0.083,0.994,39.69,0,109.5,13.6,0.67,212.9
"2012-01-09 00:55:00",1546969,3.224,262.5,8.81,1.222,4.127,100.243,-0.08,0.982,39.62,0,109.5,13.6,0.67,224.5
"2012-01-09 00:55:30",1546970,3.349,257.9,9.23,1.096,4.49,100.2453,-0.074,1.017,39.7,0,109.5,13.6,0.68,219.9
"2012-01-09 00:56:00",1546971,3.533,254.4,9,0.97,5.095,100.2476,-0.068,1.109,39.79,0,109.5,13.6,0.68,216.4
"2012-01-09 00:56:30",1546972,2.342,251.2,5.874,1.032,2.674,100.2482,-0.067,1.062,39.7,0,109.5,13.6,0.69,213.2
"2012-01-09 00:57:00",1546973,3.022,252,8.95,1.164,2.902,100.2487,-0.065,0.871,39.48,0,109.5,13.6,0.69,214.0
"2012-01-09 00:57:30",1546974,3.771,257.6,4.613,0.877,4.828,100.2524,-0.056,1.024,39.63,0,109.5,13.59,0.70,219.6
"2012-01-09 00:58:00",1546975,1.92,252,4.055,0.444,1.397,100.2521,-0.057,0.937,39.52,0,109.5,13.6,0.69,214.0
"2012-01-09 00:58:30",1546976,2.705,256,8.92,1.313,2.792,100.2527,-0.055,0.822,39.43,0,109.5,13.59,0.70,218.0
"2012-01-09 00:59:00",1546977,3.984,259.8,4.098,0.904,5.373,100.2547,-0.05,1.079,39.63,0,109.5,13.59,0.70,221.8
"2012-01-09 00:59:30",1546978,4.342,260.3,5.72,0.858,5.503,100.255,-0.049,1.108,39.68,0,109.5,13.59,0.70,222.3
"2012-01-09 01:00:00",1546979,2.629,260.8,4.442,1.104,2.41,100.2544,-0.051,0.852,39.46,0,109.5,13.59,0.70,222.8
"2012-01-09 01:00:30",1546980,3.022,253.1,7.136,1.181,2.854,100.2547,-0.05,0.987,39.56,0,109.5,13.59,0.70,215.1
"2012-01-09 01:01:00",1546981,3.422,255.5,6.475,1.238,3.688,100.2561,-0.047,0.967,39.52,0,109.5,13.59,0.71,217.5
"2012-01-09 01:01:30",1546982,2.828,266,7.072,1.233,2.232,100.2544,-0.051,0.895,39.51,0,109.5,13.6,0.70,228.0
"2012-01-09 01:02:00",1546983,2.856,267.2,7.288,1.189,3.032,100.2513,-0.059,1.034,39.7,0,109.5,13.6,0.69,229.2
"2012-01-09 01:02:30",1546984,4.144,274.6,6.305,0.946,5.635,100.2428,-0.081,1.135,39.78,0,109.5,13.6,0.67,236.6
"2012-01-09 01:03:00",1546985,3.742,265.8,6.441,1.2,4.609,100.2431,-0.08,1.094,39.76,0,109.5,13.6,0.67,227.8
"2012-01-09 01:03:30",1546986,3.253,269.6,7.737,1.277,3.643,100.2419,-0.083,1.053,39.79,0,109.5,13.61,0.67,231.6
"2012-01-09 01:04:00",1546987,2.431,260.4,5.243,0.793,1.261,100.2428,-0.081,0.896,39.62,0,109.5,13.61,0.67,222.4
"2012-01-09 01:04:30",1546988,3.591,264.7,4.603,1.187,3.566,100.2453,-0.074,0.892,39.66,0,109.5,13.61,0.68,226.7
"2012-01-09 01:05:00",1546989,3.331,256.2,10.62,1.301,3.781,100.2436,-0.078,1.025,39.82,0,109.5,13.61,0.67,218.2
"2012-01-09 01:05:30",1546990,2.788,255.3,7.957,1.146,3.144,100.2482,-0.067,1.003,39.85,0,109.5,13.61,0.69,217.3
"2012-01-09 01:06:00",1546991,4.064,270.4,4.484,0.762,5.652,100.2417,-0.083,1.127,39.9,0,109.5,13.61,0.67,232.4
"2012-01-09 01:06:30",1546992,3.058,263,8.81,1.39,3.407,100.2428,-0.081,0.927,39.78,0,109.5,13.61,0.67,225.0
"2012-01-09 01:07:00",1546993,3.382,266.2,7.729,1.251,3.816,100.2414,-0.084,0.992,39.88,0,109.5,13.61,0.67,228.2
"2012-01-09 01:07:30",1546994,2.48,255.9,6.515,1.15,2.127,100.2417,-0.083,0.859,39.77,0,109.5,13.61,0.67,217.9
"2012-01-09 01:08:00",1546995,2.347,258,4.951,0.999,2.319,100.2425,-0.081,1.013,39.93,0,109.5,13.61,0.67,220.0
"2012-01-09 01:08:30",1546996,3.374,261.4,6.969,1.23,4.058,100.2408,-0.086,0.943,39.88,0,109.5,13.61,0.67,223.4
"2012-01-09 01:09:00",1546997,3.401,269.6,8.76,1.33,4.29,100.2414,-0.084,1.015,39.99,0,109.5,13.61,0.67,231.6
"2012-01-09 01:09:30",1546998,3.897,274.3,5.515,1.13,4.827,100.24,-0.088,1.131,39.99,0,109.5,13.61,0.66,236.3
"2012-01-09 01:10:00",1546999,3.258,273.4,6.733,1.283,3.917,100.238,-0.093,1.019,39.76,0,109.5,13.61,0.66,235.4
"2012-01-09 01:10:30",1547000,1.955,263.6,1.504,0.471,1.125,100.2371,-0.095,0.812,39.55,0,109.5,13.61,0.66,225.6
"2012-01-09 01:11:00",1547001,3.385,269.9,5.733,1.233,3.937,100.2377,-0.094,0.947,39.7,0,109.5,13.61,0.66,231.9
"2012-01-09 01:11:30",1547002,2.378,266.4,5.155,0.9,2.09,100.2394,-0.089,0.951,39.71,0,109.5,13.61,0.66,228.4
"2012-01-09 01:12:00",1547003,3.519,267.6,7.791,1.096,5.219,100.2391,-0.09,1.078,39.88,0,109.5,13.61,0.66,229.6
"2012-01-09 01:12:30",1547004,3.864,267.8,6.839,1.125,4.78,100.236,-0.098,1.094,40.02,0,109.4,13.61,0.65,229.8
"2012-01-09 01:13:00",1547005,3.357,272.5,5.909,1.203,3.687,100.2335,-0.104,0.995,39.9,0,109.5,13.61,0.65,234.5
"2012-01-09 01:13:30",1547006,3.059,269.5,7.133,1.242,2.664,100.2303,-0.112,0.833,39.69,0,109.5,13.6,0.64,231.5
"2012-01-09 01:14:00",1547007,3.183,268.6,5.723,1.227,3.5,100.2323,-0.107,1,39.99,0,109.5,13.6,0.64,230.6
"2012-01-09 01:14:30",1547008,2.911,270.4,5.955,1.165,2.195,100.2318,-0.109,0.897,39.67,0,109.5,13.6,0.64,232.4
"2012-01-09 01:15:00",1547009,2.925,268.7,6.422,1.209,2.454,100.2303,-0.112,0.913,39.81,0,109.5,13.6,0.64,230.7
"2012-01-09 01:15:30",1547010,3.582,271.3,6.225,1.237,3.926,100.2315,-0.109,1.088,40,0,109.5,13.6,0.64,233.3
"2012-01-09 01:16:00",1547011,4.367,273.9,5.682,1.043,4.786,100.2323,-0.107,1.072,40.15,0,109.5,13.6,0.64,235.9
"2012-01-09 01:16:30",1547012,3.656,260.7,8.45,1.238,3.632,100.2335,-0.104,0.921,40.31,0,109.5,13.6,0.65,222.7
"2012-01-09 01:17:00",1547013,2.992,264,7.953,1.264,3.367,100.2323,-0.107,0.98,40.22,0,109.5,13.6,0.64,226.0
"2012-01-09 01:17:30",1547014,2.803,259.7,6.12,1.102,2.892,100.2337,-0.104,0.939,40.17,0,109.5,13.6,0.65,221.7
"2012-01-09 01:18:00",1547015,2.82,262.6,5.9,1.019,2.54,100.2326,-0.107,0.952,40.28,0,109.5,13.6,0.65,224.6
"2012-01-09 01:18:30",1547016,3.379,265.5,6.411,1.213,2.609,100.2332,-0.105,0.884,40.01,0,109.5,13.6,0.65,227.5
"2012-01-09 01:19:00",1547017,4.315,272.2,4.413,0.979,5.421,100.2335,-0.104,1.077,40.19,0,109.5,13.61,0.65,234.2
"2012-01-09 01:19:30",1547018,3.855,268.8,7.549,1.233,4.756,100.2332,-0.105,0.996,40.24,0,109.5,13.61,0.65,230.8
"2012-01-09 01:20:00",1547019,2.635,258.6,6.822,0.966,2.462,100.2332,-0.105,0.951,40.36,0,109.5,13.61,0.65,220.6
"2012-01-09 01:20:30",1547020,3.605,263.2,7.946,1.199,3.706,100.2329,-0.106,0.974,40.47,0,109.5,13.61,0.65,225.2
"2012-01-09 01:21:00",1547021,4.314,266.6,4.934,0.951,4.677,100.2329,-0.106,0.941,40.49,0,109.5,13.62,0.65,228.6
"2012-01-09 01:21:30",1547022,3.969,264.1,6.623,1.185,3.815,100.232,-0.108,0.847,40.48,0,109.5,13.61,0.64,226.1
"2012-01-09 01:22:00",1547023,3.796,259.2,6.041,1.258,4.161,100.2306,-0.112,1.09,40.98,0,109.5,13.62,0.64,221.2
"2012-01-09 01:22:30",1547024,4.352,267.4,4.568,0.879,5.682,100.2275,-0.119,1.035,40.9,0,109.5,13.62,0.63,229.4
"2012-01-09 01:23:00",1547025,2.786,257.1,5.821,1.123,2.859,100.2199,-0.139,0.926,40.9,0,109.5,13.62,0.61,219.1
"2012-01-09 01:23:30",1547026,3.862,266.6,6.004,1.266,4.587,100.2159,-0.149,0.985,41.02,0,109.5,13.62,0.60,228.6
"2012-01-09 01:24:00",1547027,3.312,263.4,6.506,1.159,2.895,100.2153,-0.151,1.013,41.11,0,109.5,13.62,0.60,225.4
"2012-01-09 01:24:30",1547028,2.771,257.9,2.947,0.753,1.176,100.2165,-0.148,0.761,41.06,0,109.5,13.62,0.60,219.9
"2012-01-09 01:25:00",1547029,4.69,268.7,3.768,0.855,5.142,100.2148,-0.152,0.949,41.32,0,109.5,13.62,0.60,230.7
"2012-01-09 01:25:30",1547030,4.046,263.7,6.216,1.22,4.267,100.2153,-0.151,0.912,41.38,0,109.5,13.62,0.60,225.7
"2012-01-09 01:26:00",1547031,4.237,266,8.26,1.313,4.018,100.2148,-0.152,0.824,41.14,0,109.5,13.62,0.60,228.0
"2012-01-09 01:26:30",1547032,4.437,266.3,5.436,1.073,4.92,100.2156,-0.15,1.05,40.98,0,109.5,13.62,0.60,228.3
"2012-01-09 01:27:00",1547033,3.236,259.1,5.163,1.117,2.289,100.2162,-0.148,0.899,41.25,0,109.5,13.62,0.60,221.1
"2012-01-09 01:27:30",1547034,3.356,259.8,6.771,1.181,2.734,100.2156,-0.15,0.949,41.43,0,109.5,13.62,0.60,221.8
"2012-01-09 01:28:00",1547035,3.632,263.6,5.706,1.27,3.019,100.2142,-0.153,0.868,41.28,0,109.5,13.62,0.60,225.6
"2012-01-09 01:28:30",1547036,4.229,265.4,6.41,1.2,4.723,100.2097,-0.165,0.966,41.48,0,109.5,13.62,0.59,227.4
"2012-01-09 01:29:00",1547037,4.916,265.5,4.404,0.942,5.369,100.2077,-0.17,1,41.66,0,109.5,13.62,0.58,227.5
"2012-01-09 01:29:30",1547038,4.857,268.1,4.925,1.021,5.22,100.204,-0.179,0.988,41.67,0,109.5,13.61,0.57,230.1
"2012-01-09 01:30:00",1547039,3.272,259.6,4.156,0.859,1.825,100.2023,-0.184,0.85,41.57,0,109.5,13.62,0.57,221.6
"2012-01-09 01:30:30",1547040,4.227,262.7,6.27,1.235,2.834,100.2032,-0.182,0.79,41.46,0,109.5,13.61,0.57,224.7
"2012-01-09 01:31:00",1547041,4.21,261.7,6.423,1.245,4.128,100.2014,-0.186,1.045,41.69,0,109.5,13.61,0.57,223.7
"2012-01-09 01:31:30",1547042,4.012,261.7,6.966,1.283,3.728,100.2023,-0.184,0.899,41.43,0,109.5,13.61,0.57,223.7
"2012-01-09 01:32:00",1547043,5.024,266.8,4.071,0.79,5.908,100.2014,-0.186,0.988,41.49,0,109.5,13.61,0.57,228.8
"2012-01-09 01:32:30",1547044,4.837,260.4,5.527,1.012,5.001,100.2014,-0.186,0.999,41.51,0,109.5,13.61,0.57,222.4
"2012-01-09 01:33:00",1547045,3.564,252.1,5.703,1.103,1.595,100.2029,-0.182,0.722,41.12,0,109.5,13.61,0.57,214.1
"2012-01-09 01:33:30",1547046,3.982,258.8,4.997,1.323,3.109,100.2026,-0.183,0.899,41.24,0,109.5,13.61,0.57,220.8
"2012-01-09 01:34:00",1547047,4.293,262,5.35,1.198,4.25,100.2023,-0.184,0.932,41.44,0,109.5,13.61,0.57,224.0
"2012-01-09 01:34:30",1547048,4.334,258.2,6.717,1.288,3.503,100.1983,-0.194,0.817,41.41,0,109.5,13.61,0.56,220.2
"2012-01-09 01:35:00",1547049,4.963,263,5.454,0.935,5.46,100.1941,-0.205,0.976,41.65,0,109.5,13.61,0.55,225.0
"2012-01-09 01:35:30",1547050,4.71,263.8,5.395,1.143,4.408,100.1898,-0.216,0.939,41.62,0,109.5,13.61,0.54,225.8
"2012-01-09 01:36:00",1547051,3.107,253.7,1.837,0.489,0.923,100.1884,-0.219,0.694,41.36,0,109.5,13.62,0.53,215.7
"2012-01-09 01:36:30",1547052,4.184,260.4,6.801,1.251,3.671,100.1839,-0.231,0.866,41.55,0,109.5,13.62,0.52,222.4
"2012-01-09 01:37:00",1547053,4.609,261.2,5.788,1.128,4.511,100.1828,-0.234,0.878,41.56,0,109.5,13.62,0.52,223.2
"2012-01-09 01:37:30",1547054,4.203,259.3,6.651,1.286,4.249,100.1845,-0.229,0.883,41.59,0,109.5,13.62,0.52,221.3
"2012-01-09 01:38:00",1547055,5.021,263.8,4.307,0.938,5.233,100.1819,-0.236,0.971,41.62,0,109.5,13.62,0.52,225.8
"2012-01-09 01:38:30",1547056,4.565,257.8,6.348,1.205,3.93,100.1845,-0.229,0.886,41.49,0,109.5,13.62,0.52,219.8
"2012-01-09 01:39:00",1547057,3.656,253.7,4.775,1.092,1.622,100.1847,-0.229,0.709,41.26,0,109.5,13.62,0.52,215.7
"2012-01-09 01:39:30",1547058,4.253,255.8,6.649,1.254,3.849,100.1822,-0.235,0.943,41.44,0,109.4,13.62,0.52,217.8
"2012-01-09 01:40:00",1547059,4.632,260.2,6.064,1.24,4.627,100.1822,-0.235,0.848,41.45,0,109.5,13.62,0.52,222.2
"2012-01-09 01:40:30",1547060,5.053,262.7,5.291,1.073,5.464,100.1836,-0.231,0.943,41.5,0,109.5,13.62,0.52,224.7
"2012-01-09 01:41:00",1547061,5.329,261.1,4.954,0.88,5.151,100.183,-0.233,0.934,41.41,0,109.5,13.62,0.52,223.1
"2012-01-09 01:41:30",1547062,4.381,257.6,5.93,1.248,3.639,100.1802,-0.24,0.857,41.28,0,109.5,13.62,0.51,219.6
"2012-01-09 01:42:00",1547063,4.632,259.3,6.717,1.178,3.739,100.1748,-0.254,0.857,41.36,0,109.5,13.62,0.50,221.3
"2012-01-09 01:42:30",1547064,4.32,258.7,6.508,1.21,3.559,100.1734,-0.257,0.805,41.43,0,109.5,13.62,0.49,220.7
"2012-01-09 01:43:00",1547065,3.578,254.2,4.978,0.941,2.668,100.1711,-0.263,0.885,41.39,0,109.5,13.62,0.49,216.2
"2012-01-09 01:43:30",1547066,5.258,261.5,4.572,0.774,5.51,100.168,-0.271,0.949,41.24,0,109.5,13.62,0.48,223.5
"2012-01-09 01:44:00",1547067,5.185,262.5,4.427,1.067,5.21,100.168,-0.271,0.954,41.14,0,109.5,13.62,0.48,224.5
"2012-01-09 01:44:30",1547068,5.34,260.9,4.923,1.066,5.122,100.1692,-0.268,0.929,41.11,0,109.5,13.62,0.48,222.9
"2012-01-09 01:45:00",1547069,4.014,253.7,4.985,0.997,1.967,100.1692,-0.268,0.667,40.87,0,109.5,13.62,0.48,215.7
"2012-01-09 01:45:30",1547070,5.165,260.1,5.852,1.12,4.674,100.1686,-0.27,0.802,40.92,0,109.5,13.62,0.48,222.1
"2012-01-09 01:46:00",1547071,5.025,259.7,6.127,1.151,4.883,100.1692,-0.268,0.948,41.02,0,109.6,13.61,0.48,221.7
"2012-01-09 01:46:30",1547072,5.247,260.4,5.412,1.006,5.07,100.1694,-0.268,0.906,40.93,0,109.5,13.61,0.48,222.4
"2012-01-09 01:47:00",1547073,4.901,258.5,6.31,1.234,4.756,100.1689,-0.269,0.946,40.36,0,109.5,13.61,0.48,220.5